Probability
0 0 0 0 0 0 0 0 0 0 0 0 0 0 0 0 0 0 0 0 0 0 0 0 0 0 0 0 0 1 3 3 2 1 0 0 0 0 0 0 0 0 0 0
0 0 0 0 0 0 0 0 0 0 0 0 0 0 0 0 0 0 0 0 0 0 0 0 0 0 0 0 0 2 3 3 2 1 0 0 0 0 0 0 0 0 0 0
0 0 0 0 0 0 0 0 0 0 0 0 0 0 0 0 0 0 0 0 0 0 0 0 0 0 0 0 0 1 3 3 2 0 0 0 0 0 0 0 0 0 0 0
0 0 0 0 0 0 0 0 0 0 0 0 0 0 0 0 0 0 0 0 0 0 0 0 0 0 0 0 0 1 2 3 2 0 0 0 0 0 0 0 0 0 0 0
0 0 0 0 0 0 0 0 0 0 0 0 0 0 0 0 0 0 0 0 0 0 0 0 0 0 0 0 0 1 2 2 1 0 0 0 0 0 0 0 0 0 0 0
0 0 0 0 0 0 0 0 0 0 0 0 0 0 0 0 0 0 0 0 0 0 0 0 0 0 0 0 0 1 1 1 0 0 0 0 0 0 0 0 0 0 0 0
0 0 0 0 0 0 0 0 0 0 0 0 0 0 0 0 0 0 0 0 0 0 0 0 0 0 0 0 0 0 0 0 0 0 0 0 0 0 0 0 0 0 0 0
0 0 0 0 0 0 0 0 0 0 0 0 0 0 0 0 0 0 0 0 0 0 0 0 0 0 0 0 0 0 0 0 0 0 0 0 0 0 0 0 0 0 0 0
0 0 0 0 0 0 0 0 0 0 0 0 0 0 0 0 0 0 0 0 0 0 0 0 0 0 0 0 0 0 0 0 0 0 0 0 0 0 0 0 0 0 0 0
0 0 0 0 0 0 0 0 0 0 0 0 0 0 0 0 0 0 0 0 0 0 0 0 0 0 0 0 0 0 0 0 0 0 0 0 0 0 0 0 0 0 0 0
0 0 0 0 0 0 0 0 0 0 0 0 0 0 0 0 0 0 0 0 0 0 0 0 0 0 0 0 0 0 0 0 0 0 0 0 0 0 0 0 0 0 0 0
0 0 0 0 0 0 0 0 0 0 0 0 0 0 0 0 0 0 0 0 0 0 0 0 0 0 0 0 0 0 0 0 0 0 0 0 0 0 0 0 0 0 0 0
0 0 0 0 0 0 0 0 0 0 0 0 0 0 0 0 0 0 0 0 0 0 0 0 0 0 0 0 0 0 0 0 0 0 0 0 0 0 0 0 0 0 0 0
0 0 0 0 0 0 0 0 0 0 0 0 0 0 0 0 0 0 0 0 0 0 0 0 0 0 0 0 0 0 0 0 0 0 0 0 0 0 0 0 0 0 0 0
0 0 0 0 0 0 0 0 0 0 0 0 0 0 0 0 0 0 0 0 0 0 0 0 0 0 0 0 0 0 0 0 0 0 0 0 0 0 0 0 0 0 0 0
0 0 0 0 0 0 0 0 0 0 0 0 0 0 0 0 0 0 0 0 0 0 0 0 0 0 0 0 0 0 0 0 0 0 0 0 0 0 0 0 0 0 0 0
0 0 0 0 0 0 0 0 0 0 0 0 0 0 0 0 0 0 0 0 0 0 0 0 0 0 0 0 0 0 0 0 0 0 0 0 0 0 0 0 0 0 0 0
0 0 0 0 0 0 0 0 0 0 0 0 0 0 0 0 0 0 0 0 0 0 0 0 0 0 0 0 0 0 0 0 0 0 0 0 0 0 0 0 0 0 0 0
0 0 0 0 0 0 0 0 0 0 0 0 0 0 0 0 0 0 0 0 0 0 0 0 0 0 0 0 0 0 0 0 0 0 0 0 0 0 0 0 0 0 0 0
0 0 0 0 0 0 0 0 0 0 0 0 0 0 0 0 0 0 0 0 0 0 0 0 0 0 0 0 0 0 0 0 0 0 0 0 0 0 0 0 0 0 0 0
0 0 0 0 0 0 0 0 0 0 0 0 0 0 0 0 0 0 0 0 0 0 0 0 0 0 0 0 0 0 0 0 0 0 0 0 0 0 0 0 0 0 0 0
0 0 0 0 0 0 0 0 0 0 0 0 0 0 0 0 0 0 0 0 0 0 0 0 0 0 0 0 0 0 0 0 0 0 0 0 0 0 0 0 0 0 0 0
0 0 0 0 0 0 0 0 0 0 0 0 0 0 0 0 0 0 0 0 0 0 0 0 0 0 0 0 0 0 0 0 0 0 0 0 0 0 0 0 0 0 0 0
0 0 0 0 0 0 0 0 0 0 0 0 0 0 0 0 0 0 0 0 0 0 0 0 0 0 0 0 0 0 0 0 0 0 0 0 0 0 0 0 0 0 0 0
0 0 0 0 0 0 0 0 0 0 0 0 0 0 0 0 0 0 0 0 0 0 0 0 0 0 0 0 0 0 0 0 0 0 0 0 0 0 0 0 0 0 0 0
0 0 0 0 0 0 0 0 0 0 0 0 0 0 0 0 0 0 0 0 0 0 0 0 0 0 0 0 0 0 0 0 0 0 0 0 0 0 0 0 0 0 0 0
0 0 0 0 0 0 0 0 0 0 0 0 0 0 0 0 0 0 0 0 0 0 0 0 0 0 0 0 0 0 0 0 0 0 0 0 0 0 0 0 0 0 0 0
Wind_Speed
7 6 4 6 7 6 6 7 7 8 8 10 7 5 5 4 4 4 4 4 4 4 4 4 3 2 1 1 1 2 2 3 3 3 2 3 3 3 3 4 4 4 4 4
4 4 4 7 8 7 7 6 7 8 10 7 5 3 3 4 4 4 3 4 4 5 5 4 3 2 1 1 1 1 2 2 2 2 2 3 3 3 3 4 4 4 4 4
4 4 3 7 7 6 5 5 6 8 7 4 4 5 5 5 4 4 5 5 5 5 4 4 4 2 2 1 0 1 1 1 2 2 3 3 3 3 4 4 4 3 3 4
2 3 5 6 1 3 4 4 4 4 4 4 4 5 5 4 4 5 5 6 6 5 5 4 3 2 1 1 0 1 1 1 1 1 2 3 3 3 3 3 4 3 3 3
1 3 7 5 2 1 2 4 2 3 4 5 4 4 5 3 4 5 6 5 5 4 4 3 3 2 1 1 0 0 1 1 1 1 2 3 3 3 3 3 3 2 3 3
2 2 6 5 2 1 2 4 3 2 3 4 4 3 5 5 6 6 6 5 4 3 3 3 3 2 1 1 1 1 1 2 1 1 2 3 3 3 2 2 3 2 2 3
3 4 8 5 2 1 2 5 3 2 3 3 3 5 6 7 7 6 5 4 3 3 3 3 3 2 1 1 2 2 2 1 1 1 2 2 2 2 2 2 3 2 2 2
3 4 8 2 2 3 5 3 3 3 3 3 5 6 6 6 5 5 4 4 4 3 3 3 2 1 1 2 3 1 1 1 1 1 1 1 2 2 2 3 3 3 2 1
7 7 4 2 3 3 2 3 3 3 4 3 5 5 6 5 5 4 4 4 3 3 4 4 3 1 2 3 2 1 0 1 0 0 1 2 3 3 2 3 3 2 2 2
5 7 5 4 4 3 3 3 4 4 4 3 4 5 6 5 5 4 4 4 3 3 3 4 4 3 2 3 2 1 1 1 0 0 0 1 2 2 2 3 3 3 3 2
6 7 5 4 5 4 4 3 3 4 3 3 4 5 5 4 4 4 4 4 3 3 3 4 4 4 3 2 1 1 1 1 1 0 0 0 1 1 2 2 3 3 3 3
7 6 5 6 3 3 3 3 4 4 5 4 4 5 4 4 4 3 3 3 3 3 3 3 3 4 4 2 1 0 1 1 1 0 0 0 1 1 2 0 0 1 1 1
6 4 4 5 3 3 3 4 4 4 4 5 5 4 4 4 3 3 3 3 3 3 3 3 3 3 3 3 2 1 1 1 1 0 0 1 1 1 1 2 3 2 1 1
3 2 3 4 3 4 4 4 4 4 4 4 4 4 3 3 3 3 3 3 3 3 3 2 2 3 3 3 2 1 1 1 0 0 1 1 1 1 1 1 1 1 1 1
4 3 5 4 4 4 3 3 3 4 4 4 3 3 3 3 4 4 4 3 3 3 3 2 2 3 3 2 2 1 1 0 1 1 1 1 1 1 1 1 1 1 1 1
4 4 3 3 4 4 3 3 3 5 4 4 4 4 4 3 3 3 3 3 2 2 3 3 3 3 3 2 1 1 1 1 0 1 1 1 1 1 1 1 1 1 1 0
3 4 4 4 5 5 5 4 5 5 4 4 5 4 3 3 2 3 3 3 2 3 3 3 3 3 2 1 1 0 0 0 0 0 1 1 1 1 1 1 1 1 1 1
4 5 5 5 5 5 5 5 4 4 4 4 3 3 2 2 2 3 3 3 3 3 3 3 3 2 2 1 1 0 0 0 0 1 0 0 1 1 1 1 1 1 1 1
3 4 4 4 4 4 4 4 4 4 4 3 2 3 3 3 2 2 2 2 2 3 3 2 3 2 1 1 1 0 0 0 1 1 1 1 1 1 1 1 1 1 1 1
3 3 3 4 3 3 4 4 4 4 3 2 2 2 2 2 2 2 2 2 3 3 3 3 2 1 1 1 1 0 0 1 1 1 1 1 1 1 1 1 1 1 1 1
4 4 4 4 4 4 3 3 3 3 3 2 2 2 3 3 2 2 2 3 4 3 2 3 2 1 1 1 1 0 1 1 1 1 1 1 1 1 1 1 1 1 1 1
3 4 4 4 3 4 4 3 3 3 2 2 2 2 2 2 2 2 3 3 3 4 2 1 1 1 1 1 0 1 1 1 1 1 1 1 1 1 1 1 1 1 1 1
3 4 4 3 3 4 4 3 2 2 2 2 2 2 2 2 2 2 3 2 2 3 2 1 2 3 2 1 1 1 1 1 1 1 1 1 1 1 1 1 1 1 1 1
3 4 3 3 2 2 3 3 3 2 2 3 2 2 2 2 2 2 2 4 4 4 2 2 3 3 2 1 1 1 0 0 0 0 1 1 1 1 1 1 1 1 1 1
3 3 2 2 2 3 3 3 2 2 2 2 2 2 2 1 2 2 2 2 3 3 2 2 3 2 1 1 0 0 0 0 0 0 1 1 1 1 1 1 1 1 1 1
3 3 3 3 3 2 2 2 2 2 2 2 2 2 2 1 2 2 2 2 2 3 2 1 1 1 1 0 0 0 0 0 1 0 0 0 1 1 1 1 1 1 1 1
2 2 2 2 2 2 2 2 2 2 2 2 2 2 2 1 1 1 2 1 1 1 1 1 1 1 0 0 0 0 0 0 0 0 0 0 1 1 1 1 1 1 1 1
Wind_Direction
260 266 251 242 248 230 217 215 222 249 254 273 286 301 306 313 328 344 345 350 351 344 330 324 322 318 285 245 211 173 170 182 194 200 185 175 177 179 174 173 179 179 178 183
285 277 261 265 260 244 237 233 238 258 272 277 290 307 314 314 323 329 328 329 328 325 320 314 311 307 305 286 244 173 180 193 198 186 178 177 180 179 171 171 172 169 177 183
275 309 329 272 245 215 217 219 208 232 250 298 322 328 320 314 316 315 312 313 313 308 308 305 303 296 280 265 245 162 183 200 192 186 187 191 187 178 174 168 162 167 180 184
284 351 253 249 255 198 212 254 237 253 281 294 283 299 307 309 306 307 307 305 303 301 302 306 302 296 282 291 202 178 193 211 195 186 190 185 176 175 176 162 166 175 178 176
205 263 279 293 280 184 202 282 257 244 286 310 320 322 316 321 319 303 300 294 291 291 293 304 310 299 319 339 310 203 218 230 219 209 195 184 179 182 177 161 165 176 171 172
190 228 254 269 289 277 114 289 280 243 277 309 346 327 297 317 320 315 312 306 304 314 322 326 320 324 348 301 284 268 259 248 224 214 197 195 188 180 170 162 169 172 173 178
211 240 264 266 295 65 147 260 286 266 267 278 271 257 281 303 308 314 320 323 328 335 330 320 321 335 321 299 276 272 276 260 233 211 203 184 166 165 162 162 157 161 168 181
184 218 257 266 113 180 235 276 282 285 280 275 282 290 295 300 307 323 332 339 342 344 332 326 333 356 328 298 287 285 275 253 219 190 194 155 150 156 157 156 154 158 159 165
202 222 255 224 225 249 256 276 283 284 289 283 291 297 305 309 317 327 331 336 340 342 332 332 336 344 312 302 312 318 334 302 251 183 185 164 159 163 160 158 161 169 172 177
262 266 269 265 264 285 281 271 282 283 287 288 289 294 303 311 318 326 330 329 334 338 331 327 330 329 307 310 325 336 330 308 320 126 115 146 157 164 169 174 177 179 184 185
262 275 297 267 246 265 281 284 293 301 296 286 291 298 301 306 307 313 321 323 329 327 321 320 328 332 327 323 336 337 313 299 295 246 158 110 123 170 187 197 197 187 188 180
241 247 243 270 270 274 280 284 287 297 302 304 295 293 301 300 301 309 317 322 326 324 319 320 328 328 323 318 310 293 296 297 285 252 141 126 103 48 17 52 271 264 170 146
249 263 253 273 284 279 277 281 281 279 280 291 295 292 297 299 303 310 311 311 307 309 309 314 324 322 319 317 311 293 261 263 243 191 164 152 135 138 87 46 56 70 94 118
262 277 283 275 274 288 289 290 291 292 290 287 291 299 302 304 309 309 303 298 304 310 310 315 322 317 319 322 324 327 310 298 216 160 151 140 152 150 128 112 64 39 36 103
275 263 256 275 288 299 300 300 302 303 304 304 303 301 298 297 297 300 307 316 323 324 320 324 322 315 320 327 331 334 329 171 142 134 122 107 110 113 116 115 116 83 48 78
295 297 283 279 284 292 295 292 289 290 292 293 295 293 290 288 294 306 315 322 322 313 312 314 309 309 319 329 340 352 347 334 218 137 128 118 122 126 132 138 144 144 156 186
277 282 277 284 286 285 280 276 273 276 282 283 282 290 299 308 320 320 319 322 312 299 298 298 301 309 319 335 354 15 29 14 10 93 138 153 160 162 160 159 167 174 194 208
252 261 258 258 267 278 284 286 285 281 276 277 282 290 287 282 285 297 310 327 337 329 317 308 311 327 343 1 19 41 61 63 76 100 105 132 154 153 155 172 179 178 182 176
287 281 277 273 272 272 279 283 284 282 284 280 272 272 274 277 281 296 313 324 319 310 310 317 326 345 343 339 1 60 87 104 94 94 112 128 88 115 137 147 147 145 149 144
299 297 289 288 290 282 282 289 289 289 285 274 270 281 295 295 296 303 309 295 282 282 297 316 325 322 314 305 354 84 132 133 130 141 143 143 139 131 130 138 138 143 154 162
295 299 299 295 294 294 291 293 293 290 294 283 258 264 278 292 296 292 296 298 302 305 308 317 329 315 305 298 346 101 126 135 152 167 164 161 160 152 148 150 156 164 163 157
286 287 290 293 295 301 306 302 289 285 290 284 272 267 278 292 297 295 280 272 290 309 321 315 311 311 329 335 67 118 130 140 171 177 176 179 177 171 168 167 173 179 169 165
282 281 285 288 288 293 305 305 292 283 277 275 270 266 265 271 271 274 296 299 296 303 315 303 304 316 332 0 84 114 129 160 187 186 188 183 180 181 178 172 177 177 174 167
277 280 282 287 293 296 298 298 295 288 282 284 280 270 264 282 299 284 277 299 312 317 318 312 316 321 337 33 79 90 109 156 199 198 189 179 170 169 166 166 172 167 161 164
267 268 271 276 273 272 277 292 303 301 301 302 303 298 280 254 263 289 296 299 311 327 330 320 326 339 5 46 65 75 125 182 193 176 170 167 167 162 161 164 164 154 156 163
259 258 255 251 253 261 270 275 280 287 294 301 306 301 296 290 279 287 297 303 305 317 327 325 326 339 12 25 334 315 259 283 300 318 174 171 166 161 160 155 150 147 147 148
267 270 274 285 279 265 263 262 263 271 269 271 290 298 301 306 307 306 306 309 314 321 327 332 340 338 351 343 11 57 46 33 10 2 69 100 111 124 136 139 140 134 131 140